| time (UTC) | temp C | wind direction | speed KPH | gust KPH | rain 1hr cm | rain 24hr cm | rain mn cm | humidity % | barometer mb |
| 20260503184605 | 17 | 271 | 4.8 | 20.9 | 0.00 | 0.00 | 0.00 | 40 | 966.4 |
| 20260503183057 | 16 | 245 | 1.6 | 9.7 | 0.00 | 0.00 | 0.00 | 37 | 966.7 |
| 20260503181601 | 17 | 304 | 1.6 | 11.3 | 0.00 | 0.00 | 0.00 | 37 | 966.8 |
| 20260503180106 | 17 | 132 | 3.2 | 11.3 | 0.00 | 0.00 | 0.00 | 37 | 966.9 |
| 20260503174550 | 17 | 202 | 0.0 | 8.0 | 0.00 | 0.00 | 0.00 | 37 | 967.1 |
| 20260503173059 | 17 | 196 | 3.2 | 12.9 | 0.00 | 0.00 | 0.00 | 36 | 967.2 |
| 20260503171545 | 16 | 318 | 3.2 | 11.3 | 0.00 | 0.00 | 0.00 | 36 | 967.8 |
| 20260503081525 | 2 | 38 | 0.0 | 0.0 | 0.00 | 0.00 | 0.00 | 92 | 968.4 |
| 20260503071519 | 2 | 38 | 0.0 | 0.0 | 0.00 | 0.00 | 0.00 | 90 | 968.2 |
| 20260503054507 | 3 | 38 | 0.0 | 0.0 | 0.00 | 0.00 | 0.00 | 86 | 968.5 |
| 20260503053006 | 3 | 38 | 0.0 | 0.0 | 0.00 | 0.00 | 0.00 | 85 | 968.5 |
| 20260503051507 | 3 | 38 | 0.0 | 0.0 | 0.00 | 0.00 | 0.00 | 83 | 968.5 |
| 20260503050001 | 4 | 38 | 0.0 | 0.0 | 0.00 | 0.00 | 0.00 | 80 | 968.5 |
| 20260503044559 | 5 | 38 | 0.0 | 0.0 | 0.00 | 0.00 | 0.00 | 78 | 968.5 |
| 20260503043104 | 5 | 38 | 0.0 | 0.0 | 0.00 | 0.00 | 0.00 | 77 | 968.4 |
| 20260503041556 | 5 | 38 | 0.0 | 1.6 | 0.00 | 0.00 | 0.00 | 75 | 968.4 |
| 20260503040058 | 5 | 38 | 0.0 | 0.0 | 0.00 | 0.00 | 0.00 | 72 | 968.5 |
| 20260503034553 | 5 | 38 | 0.0 | 0.0 | 0.00 | 0.00 | 0.00 | 70 | 968.5 |
| 20260503033053 | 6 | 38 | 0.0 | 0.0 | 0.00 | 0.00 | 0.00 | 68 | 968.5 |
| 20260503031551 | 6 | 38 | 0.0 | 1.6 | 0.00 | 0.00 | 0.00 | 65 | 968.5 |
| 20260503030058 | 7 | 38 | 0.0 | 0.0 | 0.00 | 0.00 | 0.00 | 62 | 968.4 |
| 20260503024550 | 7 | 38 | 0.0 | 1.6 | 0.00 | 0.00 | 0.00 | 60 | 968.4 |
| 20260503023056 | 7 | 38 | 0.0 | 1.6 | 0.00 | 0.00 | 0.00 | 60 | 968.3 |
| 20260503021554 | 7 | 38 | 0.0 | 1.6 | 0.00 | 0.00 | 0.00 | 58 | 968.3 |
| 20260503020055 | 7 | 38 | 0.0 | 1.6 | 0.00 | 0.00 | 0.00 | 57 | 968.1 |
| 20260503014546 | 8 | 38 | 0.0 | 1.6 | 0.00 | 0.00 | 0.00 | 56 | 968.0 |
| 20260503013046 | 8 | 38 | 0.0 | 1.6 | 0.00 | 0.00 | 0.00 | 55 | 967.8 |
| 20260503011546 | 8 | 30 | 0.0 | 1.6 | 0.00 | 0.00 | 0.00 | 54 | 967.6 |
| 20260503010045 | 8 | 90 | 0.0 | 4.8 | 0.00 | 0.00 | 0.00 | 53 | 967.5 |
| 20260503004557 | 9 | 335 | 0.0 | 6.4 | 0.00 | 0.00 | 0.00 | 52 | 967.4 |
| 20260503003101 | 9 | 107 | 0.0 | 3.2 | 0.00 | 0.00 | 0.00 | 51 | 967.2 |
| 20260503001600 | 10 | 42 | 0.0 | 8.0 | 0.00 | 0.00 | 0.00 | 49 | 967.0 |
| 20260503000043 | 10 | 360 | 0.0 | 12.9 | 0.00 | 0.00 | 0.00 | 46 | 966.8 |
| 20260502234542 | 10 | 326 | 1.6 | 11.3 | 0.00 | 0.00 | 0.00 | 44 | 966.7 |
| 20260502233042 | 11 | 326 | 4.8 | 16.1 | 0.00 | 0.00 | 0.00 | 43 | 966.6 |
| 20260502231541 | 11 | 330 | 0.0 | 8.0 | 0.00 | 0.00 | 0.00 | 44 | 966.7 |
| 20260502230044 | 11 | 49 | 0.0 | 12.9 | 0.00 | 0.00 | 0.00 | 44 | 966.5 |
| 20260502224540 | 11 | 317 | 3.2 | 12.9 | 0.00 | 0.00 | 0.00 | 41 | 966.5 |
| 20260502223040 | 11 | 331 | 1.6 | 16.1 | 0.00 | 0.00 | 0.00 | 41 | 966.4 |
| 20260502221539 | 11 | 329 | 1.6 | 14.5 | 0.00 | 0.00 | 0.00 | 41 | 966.3 |
| 20260502220039 | 11 | 330 | 3.2 | 14.5 | 0.00 | 0.00 | 0.00 | 41 | 966.4 |
| 20260502214538 | 12 | 333 | 3.2 | 12.9 | 0.00 | 0.00 | 0.00 | 40 | 966.2 |
| 20260502213054 | 12 | 311 | 0.0 | 11.3 | 0.00 | 0.00 | 0.00 | 39 | 966.2 |
| 20260502211539 | 12 | 325 | 3.2 | 16.1 | 0.00 | 0.00 | 0.00 | 40 | 966.1 |
| 20260502210041 | 12 | 338 | 3.2 | 11.3 | 0.00 | 0.00 | 0.00 | 39 | 966.1 |
| 20260502204539 | 12 | 347 | 3.2 | 16.1 | 0.00 | 0.00 | 0.00 | 38 | 966.1 |
| 20260502203040 | 12 | 340 | 3.2 | 17.7 | 0.00 | 0.00 | 0.00 | 39 | 966.0 |
| 20260502201535 | 12 | 302 | 3.2 | 22.5 | 0.00 | 0.00 | 0.00 | 39 | 966.3 |
| 20260502200055 | 12 | 309 | 0.0 | 16.1 | 0.00 | 0.00 | 0.00 | 41 | 966.3 |
| 20260502194538 | 12 | 336 | 3.2 | 12.9 | 0.00 | 0.00 | 0.00 | 40 | 966.3 |
| 20260502193033 | 12 | 335 | 1.6 | 11.3 | 0.00 | 0.00 | 0.00 | 41 | 966.4 |
| 20260502191532 | 12 | 344 | 1.6 | 12.9 | 0.00 | 0.00 | 0.00 | 41 | 966.5 |
| 20260502190031 | 12 | 333 | 3.2 | 12.9 | 0.00 | 0.00 | 0.00 | 40 | 966.6 |